TimeMDT,TemperatureF,Dew PointF,Humidity,Sea Level PressureIn,VisibilityMPH,Wind Direction,Wind SpeedMPH,Gust SpeedMPH,PrecipitationIn,Events,Conditions,WindDirDegrees,DateUTC
12:53 AM,46.9,15.1,28,29.47,10.0,SSW,11.5,-,N/A,,Clear,210,2013-04-08 06:53:00
1:53 AM,45.0,12.9,27,29.44,10.0,SSE,9.2,-,N/A,,Clear,160,2013-04-08 07:53:00
2:53 AM,46.0,18.0,33,29.38,10.0,SSW,11.5,21.9,N/A,,Clear,200,2013-04-08 08:53:00
3:53 AM,41.0,16.0,36,29.35,10.0,SSE,9.2,-,N/A,,Clear,150,2013-04-08 09:53:00
4:53 AM,41.0,17.1,38,29.29,10.0,SSE,9.2,-,N/A,,Clear,160,2013-04-08 10:53:00
5:53 AM,44.1,21.9,42,29.23,10.0,South,19.6,29.9,N/A,,Clear,190,2013-04-08 11:53:00
6:53 AM,42.1,24.1,49,29.21,10.0,South,24.2,38.0,N/A,,Clear,190,2013-04-08 12:53:00
7:53 AM,43.0,26.1,51,29.24,10.0,South,17.3,24.2,N/A,,Overcast,190,2013-04-08 13:53:00
8:53 AM,44.1,21.9,42,29.24,10.0,SSW,28.8,39.1,N/A,,Clear,200,2013-04-08 14:53:00
9:53 AM,42.1,19.0,40,29.22,6.0,SSW,20.7,40.3,N/A,,Haze,210,2013-04-08 15:53:00
10:53 AM,45.0,17.1,33,29.17,10.0,SSW,13.8,20.7,N/A,,Mostly Cloudy,200,2013-04-08 16:53:00
11:34 AM,42.8,17.6,36,29.41,10.0,SE,11.5,21.9,N/A,,Mostly Cloudy,140,2013-04-08 17:34:00
11:53 AM,39.0,14.0,36,29.22,10.0,SSW,31.1,40.3,N/A,,Overcast,200,2013-04-08 17:53:00
12:01 PM,37.4,15.8,41,29.45,10.0,SSW,20.7,39.1,N/A,,Overcast,210,2013-04-08 18:01:00
12:37 PM,33.8,24.8,70,29.43,2.5,SW,4.6,-,0.00,Snow,Light Snow,230,2013-04-08 18:37:00
12:45 PM,32.0,26.6,80,29.44,1.2,SSE,4.6,-,0.00,Snow,Light Snow,160,2013-04-08 18:45:00
12:51 PM,33.8,26.6,75,29.44,3.0,South,8.1,-,0.00,Snow,Light Snow,180,2013-04-08 18:51:00
12:53 PM,33.1,27.0,78,29.24,5.0,SSE,6.9,-,0.00,Snow,Light Snow,160,2013-04-08 18:53:00
1:48 PM,33.8,28.4,81,29.43,1.8,SSW,11.5,-,0.00,Snow,Light Snow,200,2013-04-08 19:48:00
1:53 PM,32.0,28.9,88,29.23,0.5,South,4.6,-,0.00,Fog-Snow,Snow,180,2013-04-08 19:53:00
1:58 PM,33.8,30.2,87,29.41,0.5,SE,10.4,-,0.00,Fog-Snow,Light Snow,130,2013-04-08 19:58:00
2:04 PM,33.8,32.0,93,29.40,2.0,ESE,10.4,17.3,0.00,Snow,Light Snow,120,2013-04-08 20:04:00
2:11 PM,33.8,32.0,93,29.40,6.0,ESE,10.4,-,0.00,Snow,Light Snow,110,2013-04-08 20:11:00
2:20 PM,35.6,32.0,87,29.39,10.0,ESE,11.5,-,0.00,,Mostly Cloudy,120,2013-04-08 20:20:00
2:53 PM,35.1,28.9,78,29.17,10.0,SE,8.1,-,0.01,,Scattered Clouds,140,2013-04-08 20:53:00
3:41 PM,33.8,30.2,87,29.38,1.5,SE,9.2,-,0.00,Snow,Light Snow,140,2013-04-08 21:41:00
3:49 PM,32.0,30.2,93,29.38,0.8,SSE,8.1,-,0.00,Snow,Light Snow,150,2013-04-08 21:49:00
3:53 PM,32.0,30.0,92,29.20,0.8,SE,6.9,-,0.01,Snow,Light Snow,140,2013-04-08 21:53:00
4:01 PM,33.8,30.2,87,29.37,1.8,SE,8.1,-,0.00,Snow,Light Snow,130,2013-04-08 22:01:00
4:03 PM,33.8,32.0,93,29.37,3.0,ESE,9.2,-,0.00,Snow,Light Snow,120,2013-04-08 22:03:00
4:09 PM,33.8,30.2,87,29.37,9.0,SE,10.4,-,0.00,,Overcast,130,2013-04-08 22:09:00
4:40 PM,33.8,30.2,87,29.38,1.8,SSE,8.1,-,0.00,Snow,Light Snow,150,2013-04-08 22:40:00
4:46 PM,32.0,30.2,93,29.38,0.8,West,6.9,-,0.00,Snow,Light Snow,270,2013-04-08 22:46:00
4:53 PM,30.9,30.0,96,29.22,0.5,West,4.6,-,0.01,Fog-Snow,Snow,270,2013-04-08 22:53:00
5:10 PM,30.2,30.2,100,29.39,0.2,West,15.0,-,0.02,Fog-Snow,Heavy Snow,280,2013-04-08 23:10:00
5:17 PM,30.2,30.2,100,29.39,0.2,West,11.5,19.6,0.03,Fog-Snow,Heavy Snow,260,2013-04-08 23:17:00
5:53 PM,30.0,28.9,96,29.22,0.2,WSW,15.0,-,0.08,Fog-Snow,Snow,240,2013-04-08 23:53:00
6:04 PM,30.2,28.4,93,29.40,0.5,West,15.0,-,0.02,Fog-Snow,Snow,260,2013-04-09 00:04:00
6:27 PM,28.4,28.4,100,29.41,0.2,West,17.3,24.2,0.03,Fog-Snow,Heavy Snow,280,2013-04-09 00:27:00
6:50 PM,30.2,28.4,93,29.42,0.5,West,13.8,-,0.04,Fog-Snow,Light Snow,280,2013-04-09 00:50:00
6:53 PM,30.0,28.0,92,29.26,0.8,West,16.1,-,0.04,Snow,Light Snow,280,2013-04-09 00:53:00
6:56 PM,30.2,28.4,93,29.42,1.5,WNW,15.0,-,0.00,Snow,Light Snow,290,2013-04-09 00:56:00
7:04 PM,30.2,26.6,86,29.43,3.0,WNW,15.0,21.9,0.01,Snow,Light Snow,300,2013-04-09 01:04:00
7:13 PM,30.2,26.6,86,29.44,1.8,WNW,17.3,26.5,0.01,Snow,Light Snow,290,2013-04-09 01:13:00
7:25 PM,28.4,26.6,93,29.45,2.5,NW,12.7,21.9,0.01,Snow,Light Snow,320,2013-04-09 01:25:00
7:39 PM,28.4,26.6,93,29.45,5.0,WNW,16.1,26.5,0.01,Snow,Light Snow,300,2013-04-09 01:39:00
7:53 PM,28.9,25.0,85,29.30,4.0,WNW,19.6,27.6,0.01,Snow,Light Snow,300,2013-04-09 01:53:00
8:03 PM,28.4,24.8,86,29.47,5.0,WNW,18.4,26.5,0.00,,Overcast,300,2013-04-09 02:03:00
8:53 PM,28.0,25.0,88,29.32,7.0,NW,17.3,25.3,0.00,Snow,Light Snow,310,2013-04-09 02:53:00
9:38 PM,28.4,24.8,86,29.50,5.0,NW,16.1,-,0.00,Snow,Light Snow,310,2013-04-09 03:38:00
9:46 PM,28.4,24.8,86,29.51,5.0,WNW,17.3,26.5,0.00,Snow,Light Snow,300,2013-04-09 03:46:00
9:53 PM,28.0,25.0,88,29.36,4.0,WNW,18.4,25.3,0.00,Snow,Light Snow,300,2013-04-09 03:53:00
10:07 PM,28.4,24.8,86,29.51,5.0,WNW,21.9,26.5,0.00,Snow,Light Snow,300,2013-04-09 04:07:00
10:23 PM,28.4,24.8,86,29.51,6.0,WNW,17.3,25.3,0.00,Snow,Light Snow,300,2013-04-09 04:23:00
10:32 PM,28.4,24.8,86,29.52,8.0,WNW,17.3,24.2,0.00,,Overcast,300,2013-04-09 04:32:00
10:53 PM,27.0,24.1,89,29.36,9.0,WNW,19.6,-,0.00,,Mostly Cloudy,300,2013-04-09 04:53:00
11:16 PM,28.4,24.8,86,29.52,7.0,WNW,17.3,24.2,0.00,Snow,Light Snow,300,2013-04-09 05:16:00
11:24 PM,26.6,24.8,93,29.52,9.0,WNW,18.4,24.2,0.00,Snow,Light Snow,300,2013-04-09 05:24:00
11:53 PM,27.0,24.1,89,29.39,10.0,WNW,15.0,24.2,0.00,,Overcast,300,2013-04-09 05:53:00